Total_Precipitation_Accumulation
0.22 0.24 0.31 0.53 0.57 0.49 0.55 0.56 0.63 0.56 0.59 0.68 0.77 0.84 0.83 0.82 0.75 0.68 0.67 0.65 0.60 0.55 0.55 0.57 0.62 0.70 0.83 1.15 1.40 1.42 1.38 1.22 1.12 1.10 1.10 1.05 1.05 1.10 1.01 0.87 0.80 0.78 0.86 0.95
0.21 0.20 0.23 0.25 0.19 0.20 0.26 0.31 0.39 0.45 0.57 0.62 0.69 0.69 0.74 0.72 0.58 0.55 0.57 0.57 0.57 0.52 0.47 0.45 0.46 0.53 0.64 0.84 1.06 1.17 1.18 1.11 1.00 1.01 0.98 0.89 0.93 1.04 1.09 0.95 0.86 0.80 0.79 0.77
0.28 0.22 0.26 0.24 0.15 0.21 0.27 0.30 0.34 0.48 0.64 0.69 0.74 0.77 1.07 1.08 0.76 0.62 0.62 0.57 0.58 0.56 0.52 0.51 0.50 0.51 0.53 0.62 0.76 0.88 0.93 0.89 0.79 0.81 0.95 0.98 1.01 1.01 0.92 0.85 0.87 0.86 0.77 0.69
0.38 0.37 0.45 0.25 0.14 0.21 0.25 0.28 0.28 0.33 0.38 0.47 0.59 0.69 0.84 0.92 0.79 0.67 0.64 0.56 0.55 0.53 0.47 0.48 0.50 0.51 0.55 0.55 0.60 0.65 0.66 0.66 0.62 0.67 0.85 0.91 0.86 0.82 0.76 0.75 0.79 0.85 0.78 0.73
0.48 0.59 0.47 0.21 0.15 0.17 0.19 0.22 0.19 0.22 0.21 0.25 0.29 0.29 0.28 0.31 0.35 0.38 0.36 0.34 0.37 0.39 0.36 0.35 0.36 0.41 0.42 0.40 0.44 0.46 0.47 0.51 0.60 0.61 0.63 0.66 0.65 0.64 0.67 0.73 0.74 0.69 0.72 0.87
0.53 0.62 0.52 0.26 0.15 0.13 0.18 0.31 0.19 0.18 0.17 0.17 0.20 0.25 0.21 0.24 0.19 0.16 0.16 0.18 0.26 0.36 0.38 0.33 0.33 0.39 0.39 0.39 0.41 0.42 0.44 0.50 0.56 0.59 0.62 0.63 0.66 0.68 0.70 0.71 0.74 0.75 0.77 0.90
0.46 0.59 0.40 0.20 0.16 0.17 0.33 0.33 0.16 0.12 0.10 0.10 0.13 0.17 0.16 0.19 0.17 0.14 0.17 0.19 0.24 0.30 0.37 0.36 0.36 0.37 0.38 0.40 0.43 0.50 0.52 0.51 0.52 0.55 0.60 0.65 0.72 0.74 0.75 0.76 0.77 0.81 0.82 0.84
0.41 0.53 0.42 0.18 0.18 0.28 0.30 0.18 0.13 0.11 0.11 0.11 0.12 0.13 0.12 0.13 0.15 0.13 0.15 0.17 0.21 0.25 0.35 0.38 0.41 0.41 0.44 0.44 0.45 0.51 0.55 0.53 0.54 0.58 0.59 0.64 0.75 0.80 0.81 0.83 0.82 0.83 0.86 0.90
0.42 0.39 0.27 0.19 0.19 0.21 0.20 0.18 0.14 0.14 0.13 0.11 0.13 0.13 0.13 0.14 0.17 0.12 0.12 0.17 0.21 0.24 0.32 0.38 0.42 0.46 0.49 0.48 0.48 0.50 0.53 0.57 0.60 0.61 0.60 0.60 0.66 0.73 0.78 0.83 0.85 0.86 0.88 0.92
0.29 0.21 0.16 0.18 0.19 0.17 0.16 0.16 0.15 0.16 0.17 0.16 0.16 0.16 0.16 0.16 0.18 0.16 0.13 0.13 0.17 0.21 0.27 0.34 0.40 0.43 0.50 0.52 0.52 0.55 0.57 0.65 0.68 0.69 0.68 0.66 0.67 0.71 0.75 0.79 0.82 0.81 0.81 0.89
0.25 0.16 0.12 0.13 0.16 0.18 0.17 0.15 0.16 0.16 0.17 0.17 0.18 0.17 0.15 0.15 0.16 0.15 0.17 0.16 0.16 0.18 0.22 0.29 0.35 0.39 0.47 0.53 0.58 0.60 0.61 0.69 0.76 0.77 0.75 0.74 0.73 0.73 0.72 0.71 0.78 0.78 0.78 0.83
0.22 0.15 0.15 0.13 0.14 0.18 0.20 0.19 0.16 0.14 0.14 0.15 0.16 0.15 0.14 0.15 0.16 0.17 0.18 0.19 0.19 0.19 0.20 0.23 0.28 0.32 0.38 0.43 0.52 0.60 0.66 0.69 0.71 0.77 0.79 0.75 0.73 0.71 0.74 0.75 0.81 0.79 0.76 0.79
0.11 0.11 0.11 0.11 0.13 0.15 0.17 0.17 0.14 0.12 0.13 0.14 0.16 0.16 0.16 0.17 0.18 0.18 0.19 0.20 0.22 0.21 0.20 0.20 0.22 0.26 0.31 0.36 0.43 0.53 0.60 0.65 0.67 0.67 0.69 0.73 0.74 0.71 0.74 0.73 0.73 0.75 0.75 0.79
0.07 0.08 0.10 0.10 0.12 0.12 0.13 0.15 0.13 0.12 0.13 0.14 0.16 0.18 0.20 0.22 0.21 0.21 0.22 0.21 0.23 0.22 0.22 0.21 0.22 0.25 0.29 0.34 0.40 0.45 0.54 0.67 0.68 0.66 0.67 0.71 0.75 0.74 0.75 0.79 0.81 0.74 0.72 0.74
0.07 0.07 0.09 0.09 0.10 0.10 0.11 0.13 0.15 0.15 0.16 0.16 0.16 0.19 0.23 0.22 0.22 0.24 0.24 0.22 0.21 0.21 0.25 0.26 0.27 0.28 0.30 0.33 0.35 0.38 0.46 0.58 0.65 0.67 0.68 0.72 0.77 0.78 0.77 0.77 0.81 0.83 0.81 0.79
0.10 0.08 0.08 0.08 0.09 0.10 0.11 0.15 0.18 0.20 0.20 0.20 0.19 0.22 0.23 0.24 0.24 0.25 0.28 0.26 0.25 0.26 0.27 0.28 0.30 0.32 0.34 0.35 0.36 0.38 0.44 0.57 0.64 0.67 0.68 0.70 0.76 0.78 0.78 0.75 0.73 0.75 0.77 0.78
0.19 0.16 0.14 0.13 0.12 0.11 0.11 0.13 0.17 0.21 0.22 0.22 0.23 0.24 0.24 0.23 0.24 0.25 0.27 0.29 0.29 0.27 0.27 0.28 0.29 0.32 0.35 0.36 0.36 0.36 0.41 0.51 0.61 0.66 0.66 0.67 0.70 0.72 0.75 0.77 0.76 0.74 0.74 0.84
0.20 0.20 0.17 0.16 0.15 0.12 0.10 0.11 0.14 0.18 0.20 0.20 0.20 0.21 0.23 0.24 0.24 0.25 0.26 0.27 0.29 0.29 0.27 0.27 0.29 0.31 0.32 0.32 0.33 0.36 0.41 0.48 0.54 0.61 0.70 0.72 0.69 0.67 0.68 0.70 0.74 0.74 0.72 0.77
0.16 0.16 0.15 0.14 0.14 0.12 0.12 0.12 0.13 0.14 0.15 0.17 0.20 0.20 0.20 0.22 0.23 0.24 0.25 0.26 0.28 0.29 0.28 0.27 0.32 0.31 0.30 0.32 0.34 0.35 0.42 0.49 0.54 0.58 0.66 0.74 0.75 0.68 0.66 0.67 0.71 0.75 0.74 0.74
0.12 0.11 0.11 0.12 0.12 0.13 0.13 0.13 0.14 0.15 0.16 0.17 0.18 0.18 0.18 0.19 0.21 0.24 0.23 0.23 0.27 0.30 0.28 0.27 0.26 0.25 0.26 0.31 0.38 0.40 0.48 0.53 0.56 0.57 0.62 0.65 0.67 0.71 0.74 0.72 0.71 0.74 0.75 0.76
0.13 0.12 0.12 0.12 0.11 0.12 0.14 0.14 0.14 0.13 0.14 0.16 0.18 0.18 0.17 0.18 0.21 0.24 0.25 0.25 0.25 0.27 0.27 0.29 0.26 0.28 0.32 0.38 0.42 0.42 0.50 0.56 0.59 0.61 0.64 0.69 0.71 0.72 0.76 0.79 0.78 0.79 0.82 0.81
0.14 0.13 0.12 0.12 0.12 0.11 0.11 0.12 0.12 0.12 0.11 0.13 0.15 0.16 0.17 0.17 0.18 0.21 0.25 0.30 0.32 0.35 0.31 0.29 0.31 0.39 0.47 0.54 0.48 0.46 0.49 0.54 0.60 0.64 0.68 0.74 0.77 0.76 0.76 0.79 0.82 0.83 0.83 0.83
0.16 0.15 0.15 0.15 0.15 0.14 0.11 0.11 0.11 0.11 0.12 0.13 0.15 0.18 0.22 0.23 0.23 0.26 0.31 0.35 0.35 0.39 0.37 0.38 0.45 0.50 0.54 0.52 0.50 0.48 0.48 0.50 0.56 0.60 0.65 0.73 0.78 0.80 0.78 0.77 0.79 0.83 0.84 0.83
0.20 0.19 0.19 0.19 0.19 0.18 0.17 0.15 0.14 0.14 0.14 0.15 0.17 0.20 0.24 0.28 0.30 0.31 0.35 0.40 0.43 0.44 0.39 0.42 0.49 0.53 0.55 0.47 0.45 0.45 0.48 0.52 0.56 0.59 0.63 0.67 0.72 0.75 0.78 0.80 0.84 0.87 0.91 0.94
0.22 0.24 0.26 0.26 0.27 0.26 0.24 0.22 0.21 0.20 0.21 0.21 0.21 0.23 0.26 0.28 0.32 0.36 0.38 0.40 0.44 0.46 0.40 0.42 0.48 0.50 0.45 0.42 0.44 0.46 0.47 0.51 0.57 0.60 0.60 0.64 0.68 0.73 0.76 0.78 0.85 0.93 1.00 1.03
0.26 0.26 0.29 0.30 0.30 0.29 0.29 0.30 0.31 0.30 0.31 0.30 0.28 0.28 0.30 0.30 0.31 0.34 0.37 0.40 0.43 0.48 0.44 0.42 0.40 0.42 0.40 0.40 0.42 0.45 0.46 0.47 0.51 0.53 0.56 0.61 0.63 0.66 0.72 0.75 0.79 0.88 0.97 1.01
0.35 0.31 0.30 0.33 0.34 0.34 0.33 0.36 0.41 0.42 0.43 0.44 0.44 0.40 0.38 0.37 0.36 0.35 0.34 0.35 0.38 0.42 0.45 0.46 0.44 0.43 0.44 0.43 0.42 0.43 0.46 0.49 0.51 0.55 0.58 0.62 0.66 0.72 0.79 0.81 0.84 0.88 0.92 0.94